Flag for Australia Weather past 2 weeks in Broome, Western Australia, Australia

Now
70 °F

Overcast.


Feels Like: 70 °F
Forecast: 65 / 87 °F
Wind: No wind

Location: Broome Airport

Current Time: Jul 29, 2014 at 1:49:24 AM

Latest Report: Jul 29, 2014 at 12:00 AM


Visibility: N/A

Pressure: 29.99 "Hg

Humidity: 83%

Dew point: 65 °F

Location of BroomeLocation

Historic Weather in Broome — Graph

°F

Broome temperature yesterday

Maximum temperature yesterday: 88 °F (at 2:00 PM)
Minimum temperature yesterday: 59 °F (at 5:00 AM)
Average temperature yesterday: 74 °F

Past Weeks' High & Low Weather Summary

 TemperatureHumidityPressure
High90 °F (Jul 27, 12:00 PM)96% (Jul 22, 3:00 AM)30.11 "Hg (Jul 22, 3:00 AM)
Low53 °F (Jul 14, 6:00 AM)15% (Jul 25, 2:00 PM)29.90 "Hg (Jul 21, 3:00 PM)
Average72 °F58%30.00 "Hg
* Reported Midnight between Jul 13 and Jul 14 — Midnight between Jul 28 and Jul 29, Broome, Weather by CustomWeather, © 2014

Note: Actual official high and low records may vary slightly from our data, if they occured in-between our weather recording intervals... More about our weather records

Advertising

Broome weather history for previous 24 hours

 ConditionsComfort  
Time TempWeatherWind HumidityBarometerVisibility
12:00 AM
Jul 29
70 °FOvercast.No wind83%29.99 "HgN/A
11:00 PM
Jul 28
71 °FMild.1 mph79%30.00 "HgN/A
9:00 PM70 °FOvercast.2 mph83%30.01 "Hg19 mi
8:00 PM71 °FMild.No wind80%30.00 "HgN/A
6:00 PM74 °FPassing clouds.5 mph74%29.96 "Hg22 mi
5:00 PM77 °FWarm.8 mph65%29.94 "HgN/A
3:00 PM80 °FScattered clouds.13 mph55%29.93 "Hg25 mi
2:00 PM88 °FHot.8 mph22%29.93 "HgN/A
12:00 PM87 °FScattered clouds.8 mph20%29.98 "HgN/A
11:00 AM85 °FPleasantly warm.9 mph24%30.02 "HgN/A
9:00 AM74 °FPassing clouds.8 mph40%30.06 "Hg25 mi
8:00 AM71 °FMild.7 mph44%30.04 "HgN/A
6:00 AM64 °FOvercast.7 mph51%30.03 "Hg25 mi
5:00 AM59 °FCool.5 mph86%30.00 "HgN/A
3:00 AM70 °FPassing clouds.6 mph61%29.99 "HgN/A
2:00 AM71 °FMild.6 mph46%29.99 "HgN/A
Weather by CustomWeather, © 2014

See weather overviewHow to use our weather pages